• In Deutschland
  • Länderverzeichnis
  • Für 7 Tage
  • Wassertemperatur
  • Satellitenkarten
  • Wetterkarte
  • Widgets
  • user-avatar
    Anmelden

    Stündliche Wetter Bad Reichenhall

    Heute, 23 Oktober, Montag

    Zeit Temperatur Niederschläge Wind Luftdruck Luftfeuchtigkeit
    00:00 +5°C° 0,8 mm 3 m/S 715 mmHg 95%
    01:00 +6°C° 0 mm 2 m/S 715 mmHg 95%
    02:00 +5°C° 0,9 mm 3 m/S 715 mmHg 95%
    03:00 +5°C° 0,9 mm 3 m/S 715 mmHg 95%
    04:00 +5°C° 0,9 mm 3 m/S 715 mmHg 95%
    05:00 +5°C° 0,9 mm 3 m/S 715 mmHg 95%
    06:00 +5°C° 0,9 mm 3 m/S 716 mmHg 95%
    07:00 +4°C° 0 mm 3 m/S 715 mmHg 95%
    08:00 +5°C° 0,8 mm 3 m/S 716 mmHg 93%
    09:00 +5°C° 0,8 mm 3 m/S 716 mmHg 92%
    10:00 +6°C° 0,8 mm 4 m/S 716 mmHg 90%
    11:00 +6°C° 0,7 mm 4 m/S 716 mmHg 90%
    12:00 +6°C° 0,7 mm 4 m/S 716 mmHg 90%
    13:00 +7°C° 0 mm 3 m/S 716 mmHg 89%
    14:00 +7°C° 0,6 mm 3 m/S 717 mmHg 90%
    15:00 +7°C° 0,6 mm 3 m/S 717 mmHg 91%
    16:00 +7°C° 0,6 mm 3 m/S 717 mmHg 92%
    17:00 +7°C° 0,8 mm 3 m/S 718 mmHg 93%
    18:00 +5°C° 0,8 mm 3 m/S 718 mmHg 94%
    19:00 +6°C° 0,8 mm 2 m/S 719 mmHg 95%
    20:00 +5°C° 1 mm 3 m/S 719 mmHg 95%
    21:00 +5°C° 1 mm 3 m/S 719 mmHg 95%
    22:00 +5°C° 1 mm 3 m/S 720 mmHg 96%
    23:00 +5°C° 0,8 mm 3 m/S 720 mmHg 96%

    Morgen, 24 Oktober, Dienstag

    Zeit Temperatur Niederschläge Wind Luftdruck Luftfeuchtigkeit
    00:00 +5°C° 0,8 mm 3 m/S 720 mmHg 96%
    01:00 +6°C° 0,8 mm 2 m/S 721 mmHg 96%
    02:00 +5°C° 0,8 mm 3 m/S 721 mmHg 96%
    03:00 +5°C° 0,8 mm 3 m/S 721 mmHg 96%
    04:00 +5°C° 0,8 mm 3 m/S 721 mmHg 96%
    05:00 +6°C° 0,6 mm 2 m/S 721 mmHg 96%
    06:00 +6°C° 0,6 mm 2 m/S 722 mmHg 96%
    07:00 +6°C° 0,6 mm 2 m/S 722 mmHg 96%
    08:00 +7°C° 0,2 mm 2 m/S 722 mmHg 95%
    09:00 +7°C° 0,2 mm 2 m/S 722 mmHg 94%
    10:00 +8°C° 0,2 mm 2 m/S 722 mmHg 93%
    11:00 +9°C° 0,1 mm 2 m/S 722 mmHg 90%
    12:00 +10°C° 0,1 mm 2 m/S 722 mmHg 87%
    13:00 +10°C° 0,1 mm 2 m/S 722 mmHg 84%
    14:00 +10°C° 0 mm 2 m/S 722 mmHg 85%
    15:00 +11°C° 0 mm 1 m/S 722 mmHg 86%
    16:00 +11°C° 0 mm 1 m/S 722 mmHg 87%
    17:00 +10°C° 0 mm 1 m/S 722 mmHg 88%
    18:00 +9°C° 0 mm 2 m/S 723 mmHg 88%
    19:00 +8°C° 0 mm 2 m/S 723 mmHg 88%
    20:00 +8°C° 0 mm 2 m/S 723 mmHg 88%
    21:00 +7°C° 0 mm 2 m/S 723 mmHg 88%
    22:00 +7°C° 0 mm 2 m/S 723 mmHg 88%
    23:00 +7°C° 0 mm 2 m/S 723 mmHg 88%

    übermorgen, 25 Oktober, Mittwoch

    Zeit Temperatur Niederschläge Wind Luftdruck Luftfeuchtigkeit
    00:00 +7°C° 0 mm 2 m/S 723 mmHg 88%
    01:00 +7°C° 0 mm 2 m/S 723 mmHg 88%
    02:00 +7°C° 0 mm 2 m/S 723 mmHg 86%
    03:00 +8°C° 0 mm 2 m/S 723 mmHg 85%
    04:00 +8°C° 0 mm 2 m/S 723 mmHg 84%
    05:00 +8°C° 0 mm 2 m/S 723 mmHg 85%
    06:00 +9°C° 0 mm 1 m/S 723 mmHg 86%
    07:00 +9°C° 0 mm 1 m/S 723 mmHg 87%
    08:00 +10°C° 0 mm 1 m/S 723 mmHg 84%
    09:00 +12°C° 0 mm 1 m/S 723 mmHg 82%
    10:00 +14°C° 0 mm 1 m/S 723 mmHg 80%
    11:00 +15°C° 0 mm 1 m/S 723 mmHg 78%
    12:00 +15°C° 0 mm 1 m/S 723 mmHg 77%
    13:00 +16°C° 0 mm 1 m/S 723 mmHg 75%
    14:00 +16°C° 0 mm 1 m/S 723 mmHg 78%
    15:00 +15°C° 0 mm 1 m/S 722 mmHg 81%
    16:00 +15°C° 0 mm 1 m/S 722 mmHg 85%
    17:00 +13°C° 0 mm 1 m/S 723 mmHg 87%
    18:00 +12°C° 0 mm 1 m/S 723 mmHg 89%
    19:00 +11°C° 0 mm 1 m/S 723 mmHg 91%
    20:00 +10°C° 0 mm 1 m/S 724 mmHg 90%
    21:00 +9°C° 0 mm 2 m/S 724 mmHg 89%
    22:00 +9°C° 0 mm 2 m/S 724 mmHg 89%
    23:00 +9°C° 0 mm 2 m/S 724 mmHg 88%

    26 Oktober, Donnerstag

    Zeit Temperatur Niederschläge Wind Luftdruck Luftfeuchtigkeit
    00:00 +9°C° 0 mm 2 m/S 724 mmHg 87%
    01:00 +10°C° 0 mm 1 m/S 724 mmHg 86%
    02:00 +10°C° 0 mm 1 m/S 724 mmHg 85%
    03:00 +8°C° 0 mm 2 m/S 724 mmHg 85%
    04:00 +8°C° 0 mm 2 m/S 724 mmHg 84%
    05:00 +9°C° 0 mm 2 m/S 724 mmHg 83%
    06:00 +9°C° 0 mm 2 m/S 724 mmHg 82%
    07:00 +9°C° 0 mm 2 m/S 724 mmHg 80%
    08:00 +12°C° 0 mm 1 m/S 724 mmHg 78%
    09:00 +14°C° 0 mm 1 m/S 724 mmHg 76%
    10:00 +15°C° 0 mm 0 m/S 724 mmHg 73%
    11:00 +15°C° 0 mm 0 m/S 723 mmHg 71%
    12:00 +18°C° 0 mm 1 m/S 723 mmHg 69%
    13:00 +19°C° 0 mm 1 m/S 723 mmHg 68%
    14:00 +18°C° 0 mm 1 m/S 723 mmHg 72%
    15:00 +18°C° 0 mm 1 m/S 722 mmHg 76%
    16:00 +16°C° 0 mm 1 m/S 722 mmHg 81%
    17:00 +14°C° 0 mm 1 m/S 722 mmHg 82%
    18:00 +13°C° 0 mm 1 m/S 722 mmHg 84%
    19:00 +12°C° 0 mm 2 m/S 722 mmHg 86%
    20:00 +10°C° 0 mm 2 m/S 722 mmHg 84%
    21:00 +10°C° 0 mm 2 m/S 722 mmHg 83%
    22:00 +10°C° 0 mm 2 m/S 722 mmHg 82%
    23:00 +10°C° 0 mm 2 m/S 722 mmHg 80%

    27 Oktober, Freitag

    Zeit Temperatur Niederschläge Wind Luftdruck Luftfeuchtigkeit
    00:00 +10°C° 0 mm 2 m/S 722 mmHg 78%
    01:00 +10°C° 0 mm 2 m/S 721 mmHg 76%
    02:00 +9°C° 0 mm 2 m/S 721 mmHg 76%
    03:00 +9°C° 0 mm 2 m/S 721 mmHg 76%
    04:00 +9°C° 0 mm 2 m/S 721 mmHg 75%
    05:00 +9°C° 0 mm 2 m/S 720 mmHg 75%
    06:00 +9°C° 0 mm 2 m/S 720 mmHg 76%
    07:00 +9°C° 0 mm 2 m/S 720 mmHg 76%
    08:00 +12°C° 0 mm 2 m/S 720 mmHg 74%
    09:00 +14°C° 0 mm 2 m/S 719 mmHg 73%
    10:00 +16°C° 0 mm 2 m/S 719 mmHg 71%
    11:00 +16°C° 0 mm 3 m/S 719 mmHg 72%
    12:00 +17°C° 0 mm 3 m/S 718 mmHg 72%
    13:00 +17°C° 0 mm 3 m/S 717 mmHg 72%
    14:00 +15°C° 0,3 mm 4 m/S 717 mmHg 77%
    15:00 +14°C° 0,3 mm 4 m/S 716 mmHg 82%
    16:00 +13°C° 0,3 mm 4 m/S 716 mmHg 86%
    17:00 +12°C° 2,1 mm 4 m/S 716 mmHg 89%
    18:00 +11°C° 2,1 mm 4 m/S 717 mmHg 92%
    19:00 +10°C° 2,1 mm 4 m/S 717 mmHg 94%
    20:00 +9°C° 2,2 mm 3 m/S 718 mmHg 94%
    21:00 +9°C° 2,2 mm 3 m/S 718 mmHg 95%
    22:00 +8°C° 2,2 mm 3 m/S 719 mmHg 95%
    23:00 +7°C° 0,3 mm 3 m/S 719 mmHg 95%

    28 Oktober, Samstag

    Zeit Temperatur Niederschläge Wind Luftdruck Luftfeuchtigkeit
    00:00 +7°C° 0,3 mm 3 m/S 719 mmHg 94%
    01:00 +7°C° 0,3 mm 3 m/S 719 mmHg 94%
    02:00 +5°C° 0,2 mm 3 m/S 719 mmHg 94%
    03:00 +5°C° 0,2 mm 3 m/S 719 mmHg 94%
    04:00 +5°C° 0,2 mm 3 m/S 719 mmHg 94%
    05:00 +5°C° 0,3 mm 3 m/S 719 mmHg 94%
    06:00 +5°C° 0,3 mm 3 m/S 719 mmHg 94%
    07:00 +4°C° 0,3 mm 3 m/S 719 mmHg 93%
    08:00 +5°C° 0,3 mm 3 m/S 719 mmHg 91%
    09:00 +5°C° 0,3 mm 3 m/S 719 mmHg 89%
    10:00 +7°C° 0,3 mm 3 m/S 719 mmHg 87%
    11:00 +7°C° 0,5 mm 3 m/S 718 mmHg 85%
    12:00 +6°C° 0,5 mm 4 m/S 718 mmHg 84%
    13:00 +6°C° 0,5 mm 4 m/S 717 mmHg 83%
    14:00 +6°C° 1 mm 4 m/S 717 mmHg 85%
    15:00 +6°C° 1 mm 4 m/S 717 mmHg 87%
    16:00 +5°C° 1 mm 4 m/S 717 mmHg 89%
    17:00 +5°C° 0,9 mm 4 m/S 717 mmHg 90%
    18:00 +5°C° 0,9 mm 4 m/S 717 mmHg 91%
    19:00 +5°C° 0,9 mm 4 m/S 717 mmHg 92%
    20:00 +5°C° 1 mm 4 m/S 717 mmHg 93%
    21:00 +5°C° 1 mm 4 m/S 717 mmHg 93%
    22:00 +5°C° 1 mm 4 m/S 717 mmHg 93%
    23:00 +5°C° 1,1 mm 4 m/S 717 mmHg 93%

    29 Oktober, Sonntag

    Zeit Temperatur Niederschläge Wind Luftdruck Luftfeuchtigkeit
    00:00 +5°C° 1,1 mm 4 m/S 717 mmHg 93%
    01:00 +5°C° 1,1 mm 4 m/S 717 mmHg 93%
    02:00 +5°C° 0,7 mm 4 m/S 716 mmHg 93%
    03:00 +5°C° 0,7 mm 4 m/S 716 mmHg 93%
    04:00 +4°C° 0,7 mm 4 m/S 716 mmHg 93%
    05:00 +4°C° 0,5 mm 4 m/S 716 mmHg 93%
    06:00 +4°C° 0,5 mm 4 m/S 717 mmHg 93%
    07:00 +4°C° 0,5 mm 4 m/S 717 mmHg 93%
    08:00 +5°C° 0,3 mm 4 m/S 717 mmHg 92%
    09:00 +5°C° 0,3 mm 4 m/S 717 mmHg 91%
    10:00 +6°C° 0,3 mm 4 m/S 717 mmHg 90%
    11:00 +6°C° 0,1 mm 4 m/S 717 mmHg 89%
    12:00 +7°C° 0,1 mm 4 m/S 716 mmHg 87%
    13:00 +7°C° 0,1 mm 4 m/S 716 mmHg 86%
    14:00 +8°C° 0,1 mm 3 m/S 715 mmHg 87%
    15:00 +8°C° 0,1 mm 3 m/S 715 mmHg 88%
    16:00 +8°C° 0,1 mm 2 m/S 715 mmHg 89%
    17:00 +7°C° 0 mm 2 m/S 715 mmHg 90%
    18:00 +7°C° 0 mm 2 m/S 715 mmHg 91%
    19:00 +6°C° 0 mm 2 m/S 715 mmHg 92%
    20:00 +6°C° 0,3 mm 2 m/S 715 mmHg 92%
    21:00 +6°C° 0,3 mm 2 m/S 715 mmHg 93%
    22:00 +5°C° 0,3 mm 3 m/S 715 mmHg 93%
    23:00 +5°C° 0,8 mm 3 m/S 714 mmHg 93%
    Mehr zeigen